FW6663 Weather Reports


time (UTC)temp
F
wind
direction
speed
knots
gust
knots
rain 1hr
in
rain 24hr
in
rain mn
in
humidity
%
barometer
mb
20260507183031 53 0 0.0 0.0 0.00 0.00 0.00 78 1016.2
20260507181531 54 0.0 0.0 0.00 0.00 0.00 80 1016.1
20260507180030 54 0.0 0.0 0.00 0.00 0.00 77 1016.3
20260507174528 55 0 0.0 0.0 0.00 0.00 0.00 74 1016.3
20260507173033 55 0 0.0 0.9 0.00 0.00 0.00 72 1016.2
20260507171529 56 0 0.0 0.9 0.00 0.00 0.00 72 1016.1
20260507170031 56 0 0.0 0.9 0.00 0.00 0.00 71 1016.1
20260507164528 57 134 0.0 0.9 0.00 0.00 0.00 69 1016.1
20260507163028 57 135 0.0 0.9 0.00 0.00 0.00 68 1016.0
20260507161532 58 135 0.0 0.9 0.00 0.00 0.00 66 1016.0
20260507160036 57 134 0.0 0.9 0.00 0.00 0.00 65 1016.1
20260507154530 57 134 0.0 0.9 0.00 0.00 0.00 66 1016.1
20260507153033 58 134 0.0 0.9 0.00 0.00 0.00 65 1016.1
20260507151529 58 0 0.0 0.9 0.00 0.00 0.00 66 1016.2
20260507150030 58 0.0 0.0 0.00 0.00 0.00 64 1016.2
20260507144531 58 145 0.9 0.0 0.00 0.00 0.00 65 1016.1
20260507143033 57 0.0 0.0 0.00 0.00 0.00 67 1016.2
20260507141530 57 0.0 0.0 0.00 0.00 0.00 65 1016.2
20260507140031 57 0.0 0.0 0.00 0.00 0.00 66 1016.2
20260507134531 58 249 3.5 5.2 0.00 0.00 0.00 65 1016.2
20260507133030 59 246 1.7 4.3 0.00 0.00 0.00 62 1016.2
20260507131535 59 0 0.9 2.6 0.00 0.00 0.00 63 1016.2
20260507130029 59 357 0.9 3.5 0.00 0.00 0.00 63 1016.3
20260507124532 59 250 0.0 2.6 0.00 0.00 0.00 66 1016.3
20260507123030 59 243 0.9 2.6 0.00 0.00 0.00 64 1016.3
20260507121530 58 255 0.9 3.5 0.00 0.00 0.00 63 1016.3
20260507120027 58 0.0 0.0 0.00 0.00 0.00 64 1016.3
20260507114531 58 268 0.0 1.7 0.00 0.00 0.00 66 1016.3
20260507113034 58 200 0.0 1.7 0.00 0.00 0.00 66 1016.2
20260507111533 59 200 2.6 4.3 0.00 0.00 0.00 68 1016.3
20260507110028 58 113 2.6 3.5 0.00 0.00 0.00 68 1016.4
20260507104531 57 153 0.0 1.7 0.00 0.00 0.00 73 1016.3
20260507103032 58 165 0.0 2.6 0.00 0.00 0.00 73 1016.4
20260507101549 58 149 0.0 2.6 0.00 0.00 0.00 73 1016.4
20260507100034 57 0.0 0.0 0.00 0.00 0.00 76 1016.4
20260507094529 57 160 0.9 2.6 0.00 0.00 0.00 76 1016.3
20260507093032 56 151 0.0 0.9 0.00 0.00 0.00 74 1016.2
20260507091548 56 141 0.9 2.6 0.00 0.00 0.00 73 1016.2
20260507090032 55 144 0.0 1.7 0.00 0.00 0.00 78 1016.2
20260507084529 54 139 0.0 0.9 0.00 0.00 0.00 78 1016.1
20260507083031 53 138 0.9 2.6 0.00 0.00 0.00 78 1016.1
20260507081545 53 139 0.9 1.7 0.00 0.00 0.00 78 1016.0
20260507080030 52 139 0.9 1.7 0.00 0.00 0.00 82 1015.9
20260507074536 52 142 0.0 0.0 0.00 0.00 0.00 83 1015.8
20260507073031 51 0 0.0 0.0 0.00 0.00 0.00 85 1015.8
20260507071528 50 0 0.0 0.9 0.00 0.00 0.00 89 1015.7
20260507070030 49 0 0.0 0.9 0.00 0.00 0.00 90 1015.7
20260507064529 48 0 0.0 0.9 0.00 0.00 0.00 91 1015.6
20260507063030 48 0 0.0 0.0 0.00 0.00 0.00 92 1015.5
20260507061534 47 0 0.0 0.0 0.00 0.00 0.00 92 1015.2
20260507060032 47 0 0.0 0.0 0.00 0.00 0.00 93 1015.3
20260507054530 47 0 0.0 0.0 0.00 0.00 0.00 93 1015.0
20260507053028 46 0 0.0 0.0 0.00 0.00 0.00 93 1014.9
20260507051530 46 0 0.0 0.0 0.00 0.00 0.00 93 1014.9
20260507050034 46 0 0.0 0.0 0.00 0.00 0.00 93 1014.6
20260507044542 46 0 0.0 0.0 0.00 0.00 0.00 93 1014.4
20260507043034 45 0 0.0 0.0 0.00 0.00 0.00 92 1014.4
20260507041531 45 0 0.0 0.0 0.00 0.00 0.00 92 1014.4
20260507040030 45 0 0.0 0.0 0.00 0.00 0.00 92 1014.2
20260507034532 45 0 0.0 0.0 0.00 0.00 0.00 92 1014.2
20260507033029 45 0 0.0 0.0 0.00 0.00 0.00 92 1014.2
20260507031529 45 0 0.0 0.0 0.00 0.00 0.00 92 1014.1
20260507030028 45 0 0.0 0.0 0.00 0.00 0.00 92 1014.0
20260507024531 46 0 0.0 0.0 0.00 0.00 0.00 92 1014.0
20260507023028 46 0 0.0 0.0 0.00 0.00 0.00 92 1014.0
20260507021527 46 0 0.0 0.0 0.00 0.00 0.00 92 1013.9
20260507020032 46 0 0.0 0.0 0.00 0.00 0.00 92 1013.8
20260507014529 46 0 0.0 0.0 0.00 0.00 0.00 92 1013.6
20260507013032 46 0 0.0 0.0 0.00 0.00 0.00 92 1013.6
20260507011531 46 0 0.0 0.0 0.00 0.00 0.00 92 1013.5
20260507010030 46 0 0.0 0.0 0.00 0.00 0.00 92 1013.6
20260507004528 46 0 0.0 0.0 0.00 0.00 0.00 92 1013.4
20260507003029 46 0 0.0 0.0 0.00 0.00 0.00 92 1013.4
20260507001528 46 0 0.0 0.0 0.00 0.00 0.00 92 1013.3
20260507000030 45 0 0.0 0.0 0.00 0.00 0.00 92 1013.2
20260506234528 45 0 0.0 0.0 0.00 0.00 0.00 92 1013.1
20260506233030 45 0 0.0 0.0 0.00 0.00 0.00 92 1013.1
20260506231529 45 0 0.0 0.0 0.00 0.00 0.00 92 1013.0
20260506230029 44 0 0.0 0.0 0.00 0.00 0.00 91 1012.9
20260506224533 44 0 0.0 0.0 0.00 0.00 0.00 92 1012.8
20260506223030 44 0 0.0 0.0 0.00 0.00 0.00 91 1012.7
20260506221531 44 0 0.0 0.0 0.00 0.00 0.00 91 1012.5
20260506220035 44 0 0.0 0.0 0.00 0.00 0.00 90 1012.6
20260506214529 44 0 0.0 0.0 0.00 0.00 0.00 89 1012.6
20260506213028 45 0 0.0 0.0 0.00 0.00 0.00 89 1012.5
20260506211529 46 0 0.0 0.0 0.00 0.00 0.00 88 1012.4
20260506210029 47 0 0.0 0.0 0.00 0.00 0.00 86 1012.2
20260506204530 48 0 0.0 0.9 0.00 0.00 0.00 85 1012.1
20260506203030 48 0 0.0 0.0 0.00 0.00 0.00 85 1012.1
20260506201541 49 0 0.0 0.0 0.00 0.00 0.00 84 1011.9
20260506200029 49 0 0.0 0.9 0.00 0.00 0.00 83 1011.8
20260506194529 50 144 0.0 0.9 0.00 0.00 0.00 85 1011.6
20260506193030 50 0 0.0 0.9 0.00 0.00 0.00 85 1011.6
20260506191532 50 134 0.0 2.6 0.00 0.00 0.00 87 1011.3
20260506190032 51 0 0.0 0.9 0.00 0.00 0.00 88 1011.0
20260506184528 51 129 0.0 1.7 0.00 0.00 0.00 87 1010.8